Tracking 28237 objects as of 29-Nov-2023
HD Live streaming from Space Station
objects crossing your sky now

COSMOS 826

Track COSMOS 826 now!
10-day predictions
COSMOS 826 is classified as:


NORAD ID: 8890
Int'l Code: 1976-054B
Perigee: 1,488.7 km
Apogee: 1,551.3 km
Inclination: 74.0 °
Period: 116.3 minutes
Semi major axis: 7890 km
RCS: 0.6963 m2 (medium)
Launch date: June 15, 1976
Source: Commonwealth of Independent States (former USSR) (CIS)
Launch site: PLESETSK MISSILE AND SPACE COMPLEX (PKMTR)
Your satellite tracking list
Your tracking list is empty




NASA's NSSDC Master Catalog

Two Line Element Set (TLE):
1  8890U 76054B   23333.14341582  .00000021  00000-0  27502-3 0  9991
2  8890  74.0002 212.7383 0039666   1.6220 152.5758 12.38533734145795
Source of the keplerian elements: AFSPC